Wakefield, VA

1:22 AM EDT on September 29, 2016 (GMT -0400)
Wakefield Municipal

Weather History for KAKQ - November, 2013

Change the Weather History Date:

Friday, November 8, 2013

  Actual Average (KJGG) Record (KJGG)
Temperature  
Mean Temperature 44 °F -  
Max Temperature 55 °F 62 °F 78 °F (1987)
Min Temperature 30 °F 40 °F 20 °F (1952)
Degree Days  
Heating Degree Days 22    
Moisture  
Dew Point 30 °F    
Average Humidity 66    
Maximum Humidity 92    
Minimum Humidity 29    
Precipitation  
Precipitation 0.00 in - - ()
Sea Level Pressure  
Sea Level Pressure 30.23 in    
Wind  
Wind Speed 3 mph (NW)    
Max Wind Speed 10 mph    
Max Gust Speed 17 mph    
Visibility 10 miles    
Events      
Averages and records for this station are not official NWS values.
T = Trace of Precipitation, MM = Missing Value Source: NWS Daily Summary

Daily Weather History Graph

Daily Weather History Graph

Search for Another Location

Airport or City:

Trip Planner

Search our weather history database for the weather conditions in past years. The results will help you decide how hot, cold, wet, or windy it might be!

Date:

Astronomy

Nov. 08, 2013 Rise Set
Actual Time 6:39 AM EST 5:03 PM EST
Civil Twilight 6:12 AM EST 5:30 PM EST
Nautical Twilight 5:41 AM EST 6:01 PM EST
Astronomical Twilight 5:10 AM EST 6:32 PM EST
Moon 11:33 AM EST (11/8) 10:21 PM EST (11/8)
Length of Visible Light 11h 18m
Length of Day
10h 24m
Waxing Crescent, 33% of the Moon is Illuminated
Nov 8
Waxing Crescent
Nov 10
First Quarter
Nov 17
Full
Nov 25
Last Quarter
Dec 2
New

Hourly Weather History & Observations

Time (EST) Temp. Windchill Dew Point Humidity Pressure Visibility Wind Dir Wind Speed Gust Speed Precip Events Conditions
12:54 AM 44.1 °F 42.5 °F 36.0 °F 73% 30.10 in 10.0 mi North 3.5 mph - N/A   Clear
1:54 AM 41.0 °F - 36.0 °F 82% 30.12 in 10.0 mi Calm Calm - N/A   Clear
2:54 AM 39.9 °F - 35.1 °F 83% 30.16 in 10.0 mi Calm Calm - N/A   Clear
3:54 AM 37.9 °F - 33.1 °F 83% 30.17 in 10.0 mi Calm Calm - N/A   Clear
4:54 AM 35.1 °F - 30.9 °F 85% 30.19 in 10.0 mi Calm Calm - N/A   Clear
5:54 AM 33.1 °F - 30.0 °F 89% 30.20 in 8.0 mi Calm Calm - N/A   Clear
6:54 AM 33.1 °F - 28.9 °F 85% 30.22 in 9.0 mi Calm Calm - N/A   Clear
7:54 AM 39.9 °F - 33.1 °F 77% 30.23 in 10.0 mi Calm Calm - N/A   Clear
8:54 AM 46.9 °F - 30.0 °F 52% 30.24 in 10.0 mi Variable 4.6 mph - N/A   Clear
9:54 AM 51.1 °F - 28.0 °F 41% 30.24 in 10.0 mi WNW 5.8 mph - N/A   Clear
10:54 AM 53.1 °F - 26.1 °F 35% 30.23 in 10.0 mi West 9.2 mph - N/A   Clear
11:54 AM 55.0 °F - 25.0 °F 31% 30.22 in 10.0 mi NW 9.2 mph - N/A   Clear
12:54 PM 55.9 °F - 24.1 °F 29% 30.21 in 10.0 mi NW 10.4 mph 17.3 mph N/A   Clear
1:54 PM 55.9 °F - 24.1 °F 29% 30.20 in 10.0 mi NW 9.2 mph 17.3 mph N/A   Clear
2:54 PM 55.9 °F - 25.0 °F 30% 30.21 in 10.0 mi NW 9.2 mph - N/A   Clear
3:54 PM 55.0 °F - 25.0 °F 31% 30.22 in 10.0 mi Variable 4.6 mph - N/A   Clear
4:54 PM 48.9 °F - 34.0 °F 56% 30.24 in 10.0 mi Calm Calm - N/A   Clear
5:54 PM 42.1 °F - 34.0 °F 73% 30.26 in 10.0 mi Calm Calm - N/A   Clear
6:54 PM 37.9 °F - 34.0 °F 86% 30.29 in 10.0 mi Calm Calm - N/A   Clear
7:54 PM 37.0 °F - 32.0 °F 82% 30.29 in 10.0 mi Calm Calm - N/A   Clear
8:54 PM 36.0 °F - 32.0 °F 86% 30.32 in 10.0 mi Calm Calm - N/A   Clear
9:54 PM 34.0 °F - 30.9 °F 89% 30.33 in 10.0 mi Calm Calm - N/A   Clear
10:54 PM 32.0 °F - 28.9 °F 88% 30.34 in 9.0 mi Calm Calm - N/A   Clear
11:54 PM 30.9 °F - 28.9 °F 92% 30.34 in 9.0 mi Calm Calm - N/A   Clear